TimeCET,TemperatureF,Dew PointF,Humidity,Sea Level PressureIn,VisibilityMPH,Wind Direction,Wind SpeedMPH,Gust SpeedMPH,PrecipitationIn,Events,Conditions,WindDirDegrees,DateUTC
12:00 AM,40,35,75,29.79,25,South,11.2,,,,,190,2014-02-21 23:00:00
1:00 AM,40,35,75,29.78,22,South,11.2,,,,Partly Cloudy,190,2014-02-22 00:00:00
2:00 AM,40,34,73,29.78,25,South,13.4,,,,,190,2014-02-22 01:00:00
3:00 AM,40,34,72,29.77,25,SSW,15.7,,,,,200,2014-02-22 02:00:00
4:00 AM,40,34,71,29.78,25,South,11.2,,,,,190,2014-02-22 03:00:00
5:00 AM,40,34,72,29.77,25,South,11.2,,,,,190,2014-02-22 04:00:00
6:00 AM,39,34,76,29.78,28,South,11.2,,,,,190,2014-02-22 05:00:00
7:00 AM,39,34,76,29.78,25,South,13.4,,,,Partly Cloudy,190,2014-02-22 06:00:00
8:00 AM,39,34,77,29.79,22,SSW,13.4,,,,Scattered Clouds,200,2014-02-22 07:00:00
9:00 AM,40,35,77,29.82,17,SSW,13.4,,,,Overcast,200,2014-02-22 08:00:00
10:00 AM,40,37,84,29.83,19,SSW,13.4,,,Rain,Rain,200,2014-02-22 09:00:00
11:00 AM,42,38,81,29.85,16,SSW,11.2,,,,Partly Cloudy,200,2014-02-22 10:00:00
12:00 PM,43,38,77,29.86,15,SSW,13.4,,,,Partly Cloudy,210,2014-02-22 11:00:00
1:00 PM,45,40,75,29.88,17,SSW,11.2,,,,Partly Cloudy,210,2014-02-22 12:00:00
2:00 PM,45,39,72,29.89,18,SSW,11.2,,,,Overcast,210,2014-02-22 13:00:00
3:00 PM,47,40,69,29.90,16,SSW,11.2,,,,Overcast,200,2014-02-22 14:00:00
4:00 PM,47,39,64,29.92,19,SSW,11.2,,,,Overcast,210,2014-02-22 15:00:00
5:00 PM,46,38,67,29.93,17,SSW,11.2,,,,Overcast,200,2014-02-22 16:00:00
6:00 PM,45,39,71,29.95,19,SSW,11.2,,,,Overcast,200,2014-02-22 17:00:00
7:00 PM,43,38,75,29.98,16,SSW,8.9,,,,Partly Cloudy,200,2014-02-22 18:00:00
8:00 PM,43,38,75,30.00,17,SSW,8.9,,,,Partly Cloudy,200,2014-02-22 19:00:00
9:00 PM,42,37,78,30.01,15,South,8.9,,,,Scattered Clouds,180,2014-02-22 20:00:00
10:00 PM,41,37,79,30.04,19,South,11.2,,,,,190,2014-02-22 21:00:00
11:00 PM,40,36,82,30.05,19,SSW,11.2,,,,Scattered Clouds,200,2014-02-22 22:00:00